Location: Congress
(40.9259°N, 82.0529°W)
Time: 15:54:03
(UTC+00:00)

Daily predictions for brighter satellites

Satellite Brightness Start Highest point End
(mag) Time Altitude Azimuth Time Altitude Azimuth Time Altitude Azimuth
Cosmos 2333 Rocket 4.0 12:02:25 10° WNW 12:03:53 11° NW 12:05:21 10° NNW
Cosmos 2219 Rocket 3.9 12:02:17 10° WNW 12:04:01 12° NW 12:06:00 10° NNW
Cosmos 1626 Rocket 4.4 12:01:13 10° NNW 12:05:08 30° W 12:09:01 10° SSW
Cosmos 1300 2.6 12:01:35 10° S 12:05:22 78° W 12:09:11 10° N
Cosmos 2228 3.0 12:01:53 10° S 12:06:08 90° E 12:10:24 10° N
Cosmos 1125 Rocket 4.0 12:01:46 10° NNW 12:07:03 65° ENE 12:12:18 10° SSE
USA 238 DEB 3.7 12:01:04 10° SSW 12:07:35 87° ESE 12:14:26 10° NE
USA 238 3.7 12:01:11 10° SSW 12:07:42 86° SE 12:14:34 10° NE
Cosmos 372 Rocket 4.4 12:03:02 10° NNW 12:08:02 45° WSW 12:12:58 10° S
SL-19 R/B 4.5 12:04:18 10° N 12:08:08 45° WNW 12:11:28 10° SW
Envisat 3.6 12:06:19 10° N 12:10:51 33° WNW 12:15:22 10° SW
FengYun 1-2 T 4.4 12:06:34 10° NNE 12:12:16 84° ESE 12:17:55 10° SSW
NOAA 6 4.4 12:12:10 10° N 12:17:02 41° WNW 12:21:52 10° SW
ATLAS CENTAUR R/B 1.3 12:15:40 10° SW 12:19:13 45° NW 12:22:45 10° NNE
H-2A R/B 2.9 12:15:13 10° N 12:19:31 46° WNW 12:23:50 10° SW
Cosmos 2297 3.8 12:16:07 10° NNW 12:21:55 89° WSW 12:27:39 10° SSE
CORIOLIS 4.1 12:17:11 10° N 12:22:31 68° WNW 12:27:48 10° SSW
COSMOS 2455 2.9 22:53:39 10° SSW 22:59:36 65° ESE 23:05:35 10° NE
Cosmos 1818 4.1 22:54:55 10° S 22:59:56 40° ESE 23:05:00 10° NE
Cosmos 1844 Rocket 3.4 22:56:03 10° S 23:01:09 35° ESE 23:06:15 10° NE
CZ-4C R/B 4.1 22:57:30 10° W 23:01:22 20° NNW 23:05:46 10° NNE
CZ-2D R/B 4.2 23:02:02 10° SE 23:05:15 26° ENE 23:08:29 10° NNE
ISS -3.7 23:04:33 10° SW 23:07:54 73° SE 23:11:16 10° ENE
H-2A R/B 3.1 23:05:21 10° S 23:09:16 60° WSW 23:13:24 10° NNW
Aureole 2 Rocket 2.5 23:10:09 10° S 23:12:59 42° ESE 23:15:56 10° NNE
Meteor 2-10 Rocket 3.8 23:08:30 10° N 23:13:47 47° ENE 23:18:48 10° SSE
COSMO-SKYMED 1 2.9 23:09:47 10° NNE 23:13:58 44° E 23:18:05 10° S
CSL-04 DEB 4.4 23:10:23 10° NNE 23:14:32 66° ESE 23:18:34 10° S
CZ-4B R/B 3.5 23:10:08 10° S 23:15:38 75° WSW 23:21:17 10° NNW
TELKOM 3 4.0 23:18:12 10° W 23:20:19 34° NNW 23:22:18 13° NE
Cosmos 1777 Rocket 4.2 23:17:07 10° SSW 23:22:22 76° WNW 23:27:41 10° NNE
Cosmos 1538 Rocket 4.0 23:17:58 10° NNW 23:23:05 59° ENE 23:28:10 10° SSE
Cosmos 1689 Rocket 3.5 23:25:19 16° ENE 23:26:17 19° E 23:28:24 10° SE
Lacrosse 5 2.5 23:22:49 10° NNW 23:27:30 37° NE 23:31:50 12° ESE
ATLAS 5 CENTAUR R/B 3.7 23:25:19 10° W 23:28:20 19° NW 23:31:38 10° N
Okean-O 3.5 23:24:42 10° SE 23:28:28 28° ENE 23:32:15 10° N
Okean O Rocket 2.4 23:24:39 10° S 23:29:01 57° W 23:33:24 10° NNW
Cosmos 1455 2.9 23:27:15 10° NNE 23:30:42 32° ENE 23:34:10 10° SE
Helios 1A Rocket 4.1 23:28:07 10° ESE 23:31:18 22° ENE 23:34:29 10° NNE
Cosmos 1340 4.2 23:30:02 10° SE 23:32:26 17° E 23:32:34 17° E
ATLAS 3B R/B 4.4 23:27:23 10° NW 23:33:46 38° WSW 23:40:22 10° S
Aureole 3 3.5 23:33:33 10° NNE 23:36:32 30° ENE 23:39:14 10° SE
NOSS 2-1 (E) 4.4 23:34:10 10° SSE 23:36:43 20° ESE 23:37:25 18° E
BREEZE-M DEB (TANK) 4.0 23:34:30 10° W 23:37:03 28° SSW 23:40:34 10° SSE
SKYMED 3 4.5 23:33:37 10° NNE 23:37:59 83° E 23:42:19 10° SSW
Cosmos 1602 Rocket 4.4 23:35:01 10° SSE 23:38:41 28° E 23:41:52 13° NE
Cosmos 1703 4.0 23:38:47 10° SSE 23:42:13 31° E 23:44:38 16° NE
YAOGAN 1 3.0 23:38:53 10° SE 23:42:52 37° ENE 23:46:50 10° N
ERS-2 2.2 23:39:21 10° NNE 23:42:55 54° E 23:46:29 10° S
CZ-4B R/B 1.8 23:39:41 10° N 23:43:01 63° WNW 23:46:14 10° SSW
Cosmos 1892 Rocket 4.2 23:39:40 10° SSW 23:43:56 57° W 23:48:12 10° N
H-2A R/B 3.9 23:40:02 10° N 23:43:57 31° WNW 23:47:48 10° SW
Meteor 2-1 Rocket 4.1 23:44:07 10° N 23:49:38 62° ENE 23:55:03 10° SSE
Cosmos 2263 Rocket 4.4 23:47:21 10° W 23:51:35 21° NW 23:55:49 10° N
Cosmos 990 Rocket 4.2 23:49:58 10° S 23:54:55 46° ESE 23:58:30 18° NE
